Погода Молчаново

Погода Молчаново : погода сейчас, прогноз погоды и архив. Всё, что Вы хотите узнать о погоде Молчаново!

Поиск расширенной информации на нашем сайте:

Другие новости

Новости СМИ2

Главная страница сайта

Новости сайта

03.07.2017

Напоминаем, что на нашем специализированном сайте Метеоцентр.Азия вы можете получить высокодетализированные автоматические прогнозы погоды по пунктам России, СНГ и мира в авиационном формате (включающие направление и скорость ветра, видимость, явления погоды, количество и форму облачности, нижнюю и верхнюю границу облачности).


Погода Молчаново - сегодня

Время (UTC), дата Ветер
(°,м/с) 
Видим.   Явления Облачность Т
(°С)
Тd
(°С)
f(%) Тe
(°С)
Pmin
(гПа)
dP
(гПа)
Po
(мм)
O2
(г/м3)
Тmin Tmax R s Состояние
почвы
12 17.04.18 300 (СЗ) 10 км  слаб. ливневой снег  10/8 300 м кучево-дожд., средняя 
[Cb calv|Ac As]
-3 -7 74 -4  1011.4  2.9  748  305    +0.5  0.0     
15 17.04.18 310 (СЗ) 20000 м  {ливн. осадки}  8/3 600 м средняя 
[Sc|Ac trans]
-5.5 -9.6 73 -7  1014.1  2.5  750  309           
18 17.04.18 270 (З) 20000 м  {ливн. осадки}  6/0 средняя 
[Ac trans]
-7.3 -10.9 75 -9  1016.4  2.1  751  312           
21 17.04.18 300 (СЗ) 20000 м    10/0 средняя 
[Ac trans]
-7.8 -13.8 62 -9  1018  1.7  753  313           
00 18.04.18 тихо ()   20000 м    10/0 средняя, верхняя 
[Ac trans|Ci fib]
-9.3 -13.8 70 -9  1019.4  1.3  754  316  -9.9    0.0  13  мокрый или
старый снег
50-90% 
03 18.04.18 250 (З) 20000 м  слаб. ливневой снег  10/8 300 м кучево-дожд., верхняя 
[Cb calv|Ci fib]
-5.9 -12 62 -7  1020.7  1.4  755  312           
06 18.04.18 260 (З) 20000 м  в посл. час ливневой снег  10/6 300 м кучево-дожд., верхняя 
[Cb calv|Ci fib]
-3.5 -12.8 48 -5  1021.1  0.5  755  309           
09 18.04.18 260 (З) 20000 м    10/6 600 м верхняя 
[Sc|Ci fib]
-1.9 -12.6 44 -3  1021  755  307           
12 18.04.18 330 (СЗ) 20000 м    8/6 600 м верхняя 
[Sc|Ci fib]
-2.2 -11.1 50 -3  1021.1  0.1  755  308    -1.4  0.0     
15 18.04.18 310 (СЗ) 20000 м    3/0 верхняя 
[Ci fib]
-6 -12.4 60 -6  1021.9  0.5  755  312           
18 18.04.18 тихо ()   20000 м    ясно 
-8.5 -12.2 75 -9  1022.3  0.3  756  315           
21 18.04.18 тихо ()   20000 м    ясно 
-11.1 -12.8 87 -11  1022  -0.4  755  318           
00 19.04.18 160 (Ю) 20000 м    ясно 
-8.5 -13.8 65 -8  1021.6  -0.3  755  315  -11.1      13  мокрый или
старый снег
50-90% 
03 19.04.18 210 (ЮЗ) 20000 м    ясно 
-2.3 -12.5 45 -2  1000.4  -0.8  755  308           
06 19.04.18 210 (ЮЗ) 20000 м    3/1 600 м верхняя 
[Cu hum|Ci fib]
+0.6 -12.8 36 -2  1018.9  -1.4  753  304           
09 19.04.18 180 (Ю) 20000 м    6/6 600 м 
[Cu Sc]
+2.8 -11.4 34 +1  1016.9  -1.8  752  301           
12 19.04.18 210 (ЮЗ) 20000 м    8/6 600 м средняя 
[Cu Sc|Ac trans]
+2.5 -8 46 +1  1015.8  -1.1  751  301    +3.4       
15 19.04.18 150 (ЮВ) 20000 м    4/0 средняя 
[Ac trans]
+0 -8.2 54 -1  1015.2  -0.7  751  303           
18 19.04.18 190 (Ю) 20000 м    4/0 средняя 
[Ac trans]
+0.5 -8.5 51 -1  1014.3  -0.9  750  303           
21 19.04.18 210 (ЮЗ) 20000 м    ясно 
-1.3 -7.9 61 -3  1014.4  750  304           
00 20.04.18 200 (Ю) 20000 м    10/0 средняя, верхняя 
[Ac trans|Ci fib]
-2.7 -9.3 60 -5  1015.1  0.7  751  306  -2.7      12  мокрый или
старый снег
50-90% 
03 20.04.18 180 (Ю) 20000 м    10/0 средняя 
[As op]
+0.1 -8.5 52 -2  1015.1  0.1  751  303  -2.7         
12 20.04.18 180 (Ю) 4{14}  20000 м    10/0 верхняя 
[Ci fib]
+7.2 -7.3 35 +6  1012  -1.5  749  295    +7.5       
15 20.04.18 170 (Ю) 4{12}  20000 м    10/0 верхняя 
[Ci fib]
+5.9 -7 39 +4    -1.5  748  296           
00 21.04.18 170 (Ю) 4{12}  20000 м  {ливн. осадки}  10/6 600 м верхняя 
[Sc|Ci fib]
+5.6 -2.1 58 +4  1006.1  -0.9  744  294  +4.4    0.0  мокрый или
старый снег
50-90% 
Время (UTC), дата Ветер
(°,м/с) 
Видим.   Явления Облачность Т
(°С)
Тd
(°С)
f(%) Тe
(°С)
Pmin
(гПа)
dP
(гПа)
Po
(мм)
O2
(г/м3)
Тmin Tmax R s Состояние
почвы

Для получения пояснительной информации подведите курсор к названию столбца.

ПОГОДА Молчаново - архив

Всё, что Вы хотите узнать о погоде Молчаново - удобно и подробно!

Выберите нужную дату (начиная с 1 января 2015* года) и нажмите кнопку "Найти".
Будут отображены архивные сводки погоды по пункту Молчаново, начиная с указанной даты.


Отображать данные в формате CSV (для использования в таблицах Excel)


Внимание! Наш архив погоды предназначен исключительно для личного некоммерческого использования в познавательных целях. Если Вам необходимы официальные справки о состоянии погоды (для производственных, юридических, коммерческих и т.п. целей), обращайтесь в органы Росгидромета.

*Примечание: данная дата относится к архиву по метеостанциям СССР (Россия, СНГ, Балтия).
Архив по метеостанциям Зарубежной Европы и Азии (кроме Китая) хранится 10 дней, по другим регионам земного шара (Китай, Африка, Америка, Австралия, Океания) - 1 день.

Молчаново - район местоположения метеостанции


Название, широта, долгота, высота метеостанции:
Молчаново 57.6°ш. 83.8°д. 114 м над ур. моря [Российская Федерация]

Дополнительная информация

В oтличие oт бoльшинства пoгoдных сайтoв мы публикуем пoдрoбную метеoинфoрмацию в детальнoм прoфессиoнальнoм фoрмате.

Характеристики температуры и влажнoсти вoздуха измеряются на высoте 2 м в тени вдали oт зданий и деревьев.
Скoрoсть ветра измеряется на высoте 10 м (на урoвне рoста челoвека скoрoсть ветра ниже в 1.5-2 раза). Если метеoстанция нахoдится в гoрoде или в лесу, тo скoрoсть ветра занижена на 2-4 м/с пo сравнению с oткрытым местoм. Скoрoсть ветра над акватoриями крупных рек и oзёр, а также на вершинах хoлмoв на 2-5 м/с выше, чем в oбычных услoвиях.
Атмoсфернoе давление в разных тoчках местнoсти мoжет значительнo oтличаться oт давления на метеoстанции, в зависимoсти oт услoвий рельефа (при пoдъёме на 10 м давление пoнижается примернo на 1 мм рт.ст.).